User: anonymous   Login
Location: Mount Kobau Star Party
(49.1167°N, 119.7333°W)
Time: 23:52:40
(UTC-07:00)
Language:

TSX-5 - Orbit

View from above orbital plane
View from above orbital plane
View from above satellite
View from above satellite

Ground track
Ground track

The orbit data is extracted from the following two-line orbital elements,

1 26374U 00030A   18169.10817858  .00000276  00000-0  32890-4 0  9999
2 26374  68.9301  34.0339 0647438 218.6460 136.6601 14.06142628907533
Epoch (UTC): 18 June 2018 02:35:46
Eccentricity: 0.0647438
inclination: 68.9301°
perigee height: 403 km
apogee height: 1342 km
right ascension of ascending node: 34.0339°
argument of perigee: 218.6460°
revolutions per day: 14.06142628
mean anomaly at epoch: 136.6601°
orbit number at epoch: 90753

The dashed part of the orbit path shows where the satellite is in the earth's shadow,  

DLR